DW4236 Weather Reports


Display with metric or nautical units.
time (UTC)temp
F
wind
direction
speed
MPH
gust
MPH
rain 1hr
in
rain 24hr
in
rain mn
in
humidity
%
barometer
mb
20260905052105 66 335 0.0 0.0 0.00 0.25 0.00 91 1012.2
20260905051105 66 334 0.0 0.0 0.00 0.25 0.00 90 1012.3
20260905050604 66 334 0.0 0.0 0.00 0.25 0.00 90 1012.3
20260905050104 66 334 0.0 0.0 0.00 0.25 0.00 90 1012.3
20260905045606 66 334 0.0 0.0 0.00 0.25 0.00 90 1012.3
20260905045105 66 334 0.0 0.0 0.00 0.25 0.00 90 1012.3
20260905044605 66 334 0.0 0.0 0.00 0.25 0.00 90 1012.2
20260905043104 66 334 0.0 0.0 0.00 0.25 0.00 89 1012.1
20260905042605 67 333 0.0 0.0 0.00 0.25 0.00 89 1012.3
20260905042104 67 334 0.0 0.0 0.00 0.25 0.00 89 1012.2
20260905041104 67 334 0.0 0.0 0.00 0.25 0.00 89 1012.2
20260905040605 67 334 0.0 0.0 0.00 0.25 0.00 89 1012.3
20260905035605 67 334 0.0 0.0 0.00 0.25 0.25 89 1012.3
20260905035104 67 334 0.0 0.0 0.00 0.25 0.25 89 1012.3
20260905034605 67 334 0.0 0.0 0.00 0.25 0.25 88 1012.4
20260905033105 68 334 0.0 0.0 0.00 0.25 0.25 89 1012.3
20260905032606 68 334 0.0 0.0 0.00 0.25 0.25 89 1012.2
20260905032105 68 334 0.0 0.0 0.00 0.25 0.25 88 1012.2
20260905031105 68 334 0.0 0.0 0.00 0.25 0.25 88 1012.2
20260905030605 68 334 0.0 0.0 0.00 0.25 0.25 88 1012.2
20260905030104 68 334 0.0 0.0 0.00 0.25 0.25 88 1012.1
20260905025605 68 334 0.0 0.0 0.00 0.25 0.25 87 1012.1
20260905025104 68 334 0.0 0.0 0.00 0.25 0.25 87 1012.1
20260905024605 69 334 0.0 0.0 0.00 0.25 0.25 86 1012.1
20260905024105 69 334 0.0 0.0 0.00 0.25 0.25 86 1012.1
20260905023605 69 335 0.0 0.0 0.00 0.25 0.25 85 1012.1
20260905023106 69 336 0.0 0.0 0.00 0.25 0.25 85 1012.2
20260905022604 69 336 1.0 2.0 0.00 0.25 0.25 85 1012.1
20260905022104 69 336 2.0 3.0 0.00 0.25 0.25 85 1012.3
20260905021605 69 336 0.0 0.0 0.00 0.25 0.25 84 1012.3
20260905020605 70 336 0.0 0.0 0.00 0.25 0.25 83 1012.2
20260905020107 70 336 0.0 0.0 0.00 0.25 0.25 83 1012.2
20260905015605 70 336 1.0 2.0 0.00 0.25 0.25 82 1012.2
20260905015105 71 336 0.0 1.0 0.00 0.25 0.25 82 1012.2
20260905014605 71 336 0.0 1.0 0.00 0.25 0.25 81 1012.1
20260905014105 72 334 1.0 2.0 0.00 0.25 0.25 80 1012.1
20260905013605 72 340 0.0 1.0 0.00 0.25 0.25 80 1012.1
20260905013104 72 340 0.0 2.0 0.00 0.25 0.25 79 1012.0
20260905012604 72 340 1.0 2.0 0.00 0.25 0.25 79 1012.0
20260905011604 73 327 0.0 3.0 0.00 0.25 0.25 78 1012.1
20260905010605 73 342 0.0 2.0 0.00 0.25 0.25 78 1012.0
20260905010105 73 342 0.0 2.0 0.00 0.25 0.25 77 1012.1
20260905005605 73 340 0.0 0.0 0.00 0.25 0.25 77 1012.1
20260905004606 73 338 1.0 3.0 0.00 0.25 0.25 76 1012.1
20260905004104 73 338 1.0 3.0 0.00 0.25 0.25 76 1012.1
20260905003606 74 342 0.0 0.0 0.00 0.25 0.25 75 1012.0
20260905002104 74 342 0.0 2.0 0.00 0.25 0.25 74 1012.0
20260905001604 74 318 0.0 0.0 0.00 0.25 0.25 74 1012.0
20260905001104 75 318 0.0 2.0 0.00 0.25 0.25 73 1011.9
20260905000605 75 338 0.0 3.0 0.00 0.25 0.25 73 1011.7
20260905000104 75 338 0.0 5.0 0.00 0.25 0.25 74 1011.7
20260904235606 75 344 1.0 3.0 0.00 0.25 0.25 73 1011.6
20260904234604 76 291 0.0 2.0 0.00 0.25 0.25 73 1011.6
20260904233104 77 341 1.0 3.0 0.00 0.25 0.25 72 1011.6
20260904232605 77 338 0.0 1.0 0.00 0.25 0.25 72 1011.6
20260904232105 77 338 1.0 3.0 0.00 0.25 0.25 72 1011.5
20260904231605 77 313 0.0 3.0 0.00 0.25 0.25 72 1011.5
20260904231105 77 307 0.0 1.0 0.00 0.25 0.25 72 1011.5
20260904230604 77 307 1.0 3.0 0.00 0.25 0.25 72 1011.5
20260904230105 78 320 0.0 2.0 0.00 0.25 0.25 72 1011.6
20260904225605 78 315 0.0 1.0 0.00 0.25 0.25 71 1011.6
20260904225105 78 315 0.0 3.0 0.00 0.25 0.25 71 1011.6
20260904224604 78 310 1.0 2.0 0.00 0.25 0.25 71 1011.5
20260904224105 78 309 0.0 1.0 0.00 0.25 0.25 71 1011.5
20260904223605 78 309 0.0 1.0 0.00 0.25 0.25 70 1011.5
20260904223105 78 310 0.0 1.0 0.00 0.25 0.25 70 1011.5
20260904222604 79 305 0.0 2.0 0.00 0.25 0.25 70 1011.6
20260904222104 79 303 0.0 2.0 0.00 0.25 0.25 70 1011.5
20260904221605 79 301 1.0 3.0 0.00 0.25 0.25 69 1011.5
20260904215604 80 276 1.0 5.0 0.00 0.25 0.25 66 1011.4
20260904214604 80 293 1.0 3.0 0.00 0.25 0.25 65 1011.3
20260904214105 80 286 2.0 3.0 0.00 0.25 0.25 63 1011.3
20260904213605 81 284 1.0 3.0 0.00 0.25 0.25 63 1011.3
20260904213105 82 284 0.0 3.0 0.00 0.25 0.25 61 1011.3
20260904212604 82 283 2.0 3.0 0.00 0.25 0.25 60 1011.2
20260904211604 82 302 1.0 3.0 0.00 0.25 0.25 59 1011.2
20260904211106 82 288 2.0 3.0 0.00 0.25 0.25 58 1011.2
20260904210605 82 263 2.0 3.0 0.00 0.25 0.25 58 1011.4
20260904210105 83 294 2.0 7.0 0.00 0.25 0.25 55 1011.4
20260904205605 83 307 3.0 8.0 0.00 0.25 0.25 55 1011.3
20260904205105 83 280 5.0 9.0 0.00 0.25 0.25 55 1011.4
20260904204604 84 317 3.0 5.0 0.00 0.25 0.25 54 1011.3
20260904203605 84 296 3.0 9.0 0.00 0.25 0.25 56 1011.4
20260904203105 85 288 3.0 10.0 0.00 0.25 0.25 52 1011.5
20260904202606 85 319 2.0 8.0 0.00 0.25 0.25 53 1011.6
20260904202105 85 276 3.0 10.0 0.00 0.25 0.25 53 1011.6
20260904201605 85 287 3.0 12.0 0.00 0.25 0.25 52 1011.5
20260904201104 85 295 5.0 12.0 0.00 0.25 0.25 54 1011.5
20260904200605 86 326 2.0 9.0 0.00 0.25 0.25 54 1011.5
20260904200105 85 0 3.0 12.0 0.00 0.25 0.25 52 1011.6
20260904195605 85 303 2.0 8.0 0.00 0.25 0.25 55 1011.5
20260904195105 85 301 5.0 10.0 0.00 0.25 0.25 52 1011.5
20260904194604 85 352 1.0 7.0 0.00 0.25 0.25 52 1011.6
20260904194105 85 356 3.0 7.0 0.00 0.25 0.25 53 1011.5
20260904193605 85 310 1.0 8.0 0.00 0.25 0.25 55 1011.5
20260904193104 85 292 3.0 10.0 0.00 0.25 0.25 54 1011.5
20260904192604 84 350 1.0 7.0 0.00 0.25 0.25 56 1011.5
20260904192105 84 19 2.0 9.0 0.00 0.25 0.25 57 1011.6
20260904191604 84 28 3.0 6.0 0.00 0.25 0.25 57 1011.8
20260904191105 84 20 3.0 6.0 0.00 0.25 0.25 56 1011.7
20260904190604 85 294 2.0 8.0 0.00 0.25 0.25 54 1011.8
20260904190104 85 296 2.0 7.0 0.00 0.25 0.25 56 1011.9
20260904185106 85 92 2.0 3.0 0.00 0.25 0.25 55 1012.0
20260904184605 85 10 1.0 12.0 0.00 0.25 0.25 58 1012.1
20260904184105 85 289 3.0 7.0 0.00 0.25 0.25 56 1012.1
20260904183105 84 328 2.0 9.0 0.00 0.25 0.25 57 1012.2
20260904182605 85 299 2.0 5.0 0.00 0.25 0.25 57 1012.3
20260904182105 84 80 3.0 8.0 0.00 0.25 0.25 59 1012.3
20260904181606 84 74 3.0 5.0 0.00 0.25 0.25 58 1012.2
20260904181105 83 31 3.0 6.0 0.00 0.25 0.25 59 1012.3
20260904180605 83 17 1.0 6.0 0.00 0.25 0.25 60 1012.2
20260904180105 84 29 6.0 10.0 0.00 0.25 0.25 58 1012.2
20260904175104 83 65 2.0 9.0 0.00 0.25 0.25 61 1012.1
20260904174604 84 50 6.0 12.0 0.00 0.25 0.25 59 1012.2
20260904174105 83 44 5.0 8.0 0.00 0.25 0.25 62 1012.2
20260904173606 83 70 3.0 7.0 0.00 0.25 0.25 60 1012.1
20260904173106 83 84 5.0 10.0 0.00 0.25 0.25 62 1012.2
20260904172604 83 45 3.0 10.0 0.00 0.25 0.25 60 1012.1
20260904172104 84 8 4.0 12.0 0.00 0.25 0.25 60 1012.2
20260904171605 84 307 3.0 6.0 0.00 0.25 0.25 61 1012.1
20260904171105 83 20 2.0 6.0 0.00 0.25 0.25 62 1012.1
20260904170605 82 11 5.0 12.0 0.00 0.25 0.25 65 1012.3
20260904170105 82 34 3.0 8.0 0.00 0.25 0.25 65 1012.3
20260904165604 82 23 4.0 9.0 0.00 0.25 0.25 62 1012.4
20260904165104 83 65 5.0 12.0 0.00 0.25 0.25 65 1012.3
20260904164606 83 26 2.0 7.0 0.00 0.25 0.25 64 1012.3
20260904164104 82 32 6.0 12.0 0.00 0.25 0.25 66 1012.3
20260904163604 82 19 4.0 9.0 0.00 0.25 0.25 67 1012.4
20260904163105 82 53 3.0 13.0 0.00 0.25 0.25 67 1012.5
20260904162604 82 307 1.0 3.0 0.00 0.25 0.25 67 1012.5
20260904162105 82 20 4.0 9.0 0.00 0.25 0.25 67 1012.5
20260904161604 82 30 5.0 8.0 0.00 0.25 0.25 69 1012.4
20260904161105 81 345 3.0 8.0 0.00 0.25 0.25 70 1012.4
20260904160604 80 25 5.0 12.0 0.00 0.25 0.25 69 1012.4
20260904160104 81 66 5.0 13.0 0.00 0.25 0.25 69 1012.4
20260904155105 79 0 2.0 3.0 0.00 0.25 0.25 75 1013.0
20260904154105 79 17 3.0 7.0 0.00 0.25 0.25 72 1012.9
20260904153606 80 30 5.0 10.0 0.00 0.25 0.25 72 1012.9
20260904153104 81 54 3.0 8.0 0.00 0.25 0.25 72 1012.9
20260904152104 82 45 3.0 10.0 0.00 0.25 0.25 69 1013.0
20260904151605 82 345 2.0 8.0 0.00 0.25 0.25 69 1013.0
20260904151105 82 17 3.0 14.0 0.00 0.25 0.25 69 1013.1
20260904150604 81 20 4.0 9.0 0.00 0.25 0.25 69 1013.2
20260904150105 81 9 4.0 9.0 0.00 0.25 0.25 69 1013.1
20260904145604 81 355 5.0 10.0 0.00 0.25 0.25 72 1013.1
20260904145105 81 7 5.0 8.0 0.00 0.25 0.25 72 1012.9
20260904144105 80 6 1.0 8.0 0.00 0.25 0.25 74 1013.1
20260904143605 80 311 4.0 10.0 0.00 0.25 0.25 73 1013.0
20260904143104 80 10 2.0 9.0 0.00 0.25 0.25 76 1013.0
20260904141605 79 358 3.0 8.0 0.00 0.25 0.25 79 1013.0
20260904141104 79 300 2.0 6.0 0.00 0.25 0.25 82 1013.0
20260904140604 78 277 2.0 5.0 0.00 0.25 0.25 82 1013.0
20260904135605 77 355 2.0 6.0 0.00 0.25 0.25 86 1012.9
20260904135105 77 321 3.0 8.0 0.00 0.25 0.25 87 1013.0
20260904134604 76 342 2.0 7.0 0.00 0.25 0.25 88 1012.8
20260904134104 76 308 3.0 10.0 0.00 0.25 0.25 90 1012.7
20260904133605 75 320 2.0 9.0 0.00 0.25 0.25 91 1012.8
20260904133104 75 348 2.0 6.0 0.00 0.25 0.25 93 1012.8
20260904132604 74 318 2.0 5.0 0.00 0.25 0.25 94 1012.9
20260904132104 74 259 1.0 6.0 0.00 0.25 0.25 95 1012.9
20260904131604 73 307 3.0 5.0 0.00 0.25 0.25 95 1012.8
20260904131105 73 312 1.0 5.0 0.00 0.25 0.25 96 1012.8
20260904130606 73 280 2.0 6.0 0.00 0.25 0.25 96 1013.0
20260904130104 73 252 1.0 3.0 0.00 0.25 0.25 96 1013.0
20260904125604 72 356 2.0 5.0 0.00 0.25 0.25 96 1013.1
20260904125104 72 309 2.0 6.0 0.00 0.25 0.25 96 1013.2
20260904124604 72 323 1.0 6.0 0.00 0.25 0.25 97 1013.2
20260904124104 71 317 2.0 6.0 0.00 0.25 0.25 97 1013.3
20260904123605 71 306 1.0 5.0 0.00 0.25 0.25 97 1013.1
20260904123105 71 259 1.0 3.0 0.00 0.25 0.25 97 1013.1
20260904122105 71 261 1.0 3.0 0.00 0.25 0.25 97 1013.1
20260904121605 71 261 0.0 0.0 0.00 0.25 0.25 97 1012.9
20260904121105 70 261 0.0 0.0 0.00 0.25 0.25 97 1012.8
20260904120604 70 261 0.0 0.0 0.00 0.25 0.25 97 1012.8
20260904120105 70 261 0.0 0.0 0.00 0.25 0.25 97 1012.9
20260904115604 70 261 0.0 0.0 0.00 0.25 0.25 97 1012.9
20260904114604 69 261 1.0 2.0 0.01 0.25 0.25 97 1012.8
20260904114104 69 261 0.0 0.0 0.01 0.25 0.25 97 1012.8
20260904113604 68 261 0.0 0.0 0.01 0.25 0.25 97 1012.9
20260904113104 68 261 0.0 0.0 0.01 0.25 0.25 96 1012.8
20260904112604 68 261 0.0 0.0 0.01 0.25 0.25 96 1012.9
20260904111605 68 261 0.0 0.0 0.01 0.25 0.25 96 1012.7
20260904111105 68 261 0.0 0.0 0.01 0.25 0.25 96 1012.8
20260904110605 68 261 0.0 0.0 0.01 0.25 0.25 96 1012.7
20260904110105 68 261 0.0 0.0 0.01 0.25 0.25 96 1012.6
20260904105605 68 261 0.0 0.0 0.01 0.25 0.25 96 1012.6
20260904105105 68 261 0.0 0.0 0.00 0.24 0.24 96 1012.5
20260904104605 68 261 0.0 0.0 0.00 0.24 0.24 96 1012.4
20260904104104 68 261 0.0 0.0 0.00 0.24 0.24 96 1012.4
20260904103605 68 261 0.0 0.0 0.00 0.24 0.24 96 1012.3
20260904103104 68 261 0.0 0.0 0.00 0.24 0.24 96 1012.4
20260904102104 68 261 0.0 0.0 0.00 0.24 0.24 96 1012.4
20260904101604 68 261 0.0 0.0 0.00 0.24 0.24 96 1012.4
20260904100604 68 261 0.0 1.0 0.00 0.24 0.24 96 1012.3
20260904100105 68 261 0.0 0.0 0.00 0.24 0.24 96 1012.2
20260904095604 68 261 0.0 0.0 0.00 0.24 0.24 96 1012.2
20260904095105 68 261 0.0 0.0 0.00 0.24 0.24 96 1012.0
20260904094604 69 261 0.0 0.0 0.00 0.24 0.24 96 1012.0
20260904094105 69 261 0.0 0.0 0.00 0.24 0.24 96 1011.9
20260904093605 69 261 0.0 0.0 0.00 0.24 0.24 96 1011.9
20260904093104 69 261 0.0 0.0 0.00 0.24 0.24 96 1011.8
20260904092605 69 261 0.0 1.0 0.00 0.25 0.24 96 1011.7
20260904091605 69 261 0.0 2.0 0.00 0.25 0.24 96 1011.8
20260904090604 69 261 0.0 1.0 0.00 0.25 0.24 96 1012.0
20260904090104 69 261 0.0 0.0 0.00 0.25 0.24 96 1011.9
20260904085604 69 261 0.0 0.0 0.00 0.25 0.24 96 1011.9
20260904085104 69 261 0.0 0.0 0.00 0.25 0.24 96 1011.9
20260904084605 69 261 0.0 0.0 0.00 0.25 0.24 96 1011.9
20260904084104 69 261 0.0 0.0 0.00 0.25 0.24 96 1011.8
20260904083605 69 261 0.0 1.0 0.00 0.25 0.24 96 1011.8
20260904083104 70 261 0.0 0.0 0.00 0.25 0.24 96 1011.7
20260904082105 70 261 0.0 0.0 0.01 0.25 0.24 96 1011.5
20260904081604 70 261 1.0 2.0 0.02 0.25 0.24 96 1011.4
20260904081104 70 261 0.0 0.0 0.04 0.25 0.24 96 1011.3
20260904080604 70 261 0.0 0.0 0.05 0.25 0.24 96 1011.3
20260904080104 70 261 0.0 2.0 0.05 0.25 0.24 95 1011.2
20260904075605 70 261 1.0 2.0 0.06 0.25 0.24 95 1011.2
20260904075106 70 203 0.0 1.0 0.07 0.25 0.24 95 1011.2
20260904074604 70 203 1.0 2.0 0.11 0.25 0.24 95 1011.2
20260904074106 70 202 0.0 0.0 0.18 0.25 0.24 95 1011.2
20260904073606 70 202 0.0 0.0 0.20 0.25 0.24 95 1011.1
20260904073104 70 203 0.0 0.0 0.20 0.26 0.24 95 1011.1
20260904072604 70 203 0.0 0.0 0.20 0.26 0.24 95 1011.4
20260904071605 70 211 0.0 3.0 0.20 0.24 0.22 95 1011.8
20260904071104 70 267 1.0 2.0 0.20 0.22 0.20 95 1012.2
20260904070604 70 275 2.0 3.0 0.19 0.21 0.19 95 1012.3
20260904070106 70 32 2.0 12.0 0.19 0.21 0.19 95 1012.3
20260904065604 71 265 5.0 13.0 0.18 0.20 0.18 95 1012.5
20260904065105 72 294 5.0 10.0 0.17 0.19 0.17 94 1012.5
20260904064604 74 336 7.0 18.0 0.13 0.15 0.13 96 1012.8
20260904064105 74 259 0.0 1.0 0.06 0.08 0.06 96 1012.6
20260904063105 73 259 0.0 0.0 0.04 0.06 0.04 96 1012.1
20260904062606 73 259 0.0 0.0 0.04 0.06 0.04 96 1012.0
20260904062104 73 259 0.0 0.0 0.03 0.05 0.03 95 1011.9
20260904061604 73 259 0.0 0.0 0.02 0.04 0.02 95 1011.9
20260904061104 73 259 0.0 0.0 0.00 0.02 0.00 95 1011.9
20260904060604 73 259 0.0 0.0 0.00 0.03 0.00 95 1011.8
20260904060105 73 259 0.0 0.0 0.00 0.03 0.00 95 1011.8
20260904055104 73 259 0.0 0.0 0.00 0.03 0.00 95 1011.9
20260904054606 73 259 0.0 0.0 0.00 0.03 0.00 95 1012.0
20260904053104 74 259 0.0 0.0 0.00 0.04 0.00 95 1012.2
20260904052604 74 259 0.0 0.0 0.00 0.04 0.00 95 1012.2